Regional Weather Roundup
Issued by NWS

Home | Current Version | Previous Version | Graphics & Text | Print | Product List | Glossary Off
Versions: 1 2 3 4 5 6 7 8 9 10 11 12 13 14 15 16 17 18 19 20 21 22 23 24 25 26 27 28 29 30 31 32 33 34 35 36 37 38 39 40 41 42 43 44 45 46 47 48 49 50

000
ASUS43 KMPX 241901
RWRMN
WEATHER ROUNDUP FOR MINNESOTA
NATIONAL WEATHER SERVICE TWIN CITIES/CHANHASSEN MN
200 PM CDT FRI OCT 24 2014


NOTE: "FAIR" INDICATES FEW OR NO CLOUDS BELOW 12,000 FEET WITH NO
SIGNIFICANT WEATHER AND/OR OBSTRUCTIONS TO VISIBILITY. N/A MEANS
CURRENT SKY AND/OR WEATHER CONDITIONS ARE NOT AVAILABLE.

MNZ060>063-068>070-242000-
   Twin Cities Metro

CITY           SKY/WX    TMP DP  RH WIND       PRES   REMARKS
TWIN CITIES    CLOUDY    63  53  70 S6        29.83F
ST PAUL        CLOUDY    63  54  72 S7        29.84F
CRYSTAL        MOSUNNY   67  53  61 SW8       29.82F
BLAINE         PTSUNNY   66  54  63 S6        29.83F
LAKEVILLE      CLOUDY    61  54  77 SW3       29.84F
EDEN PRAIRIE   PTSUNNY   66  54  65 SW8       29.82F
SOUTH ST PAUL  CLOUDY    63  54  72 S3        29.84F
LAKE ELMO      CLOUDY    61  54  77 SE6       29.85F
$$
MNZ001>005-007-008-013>017-022>024-027-028-242000-
   Northwest Minnesota

CITY           SKY/WX    TMP DP  RH WIND       PRES   REMARKS
BEMIDJI        SUNNY     72  37  28 SW15G21   29.76S
HALLOCK        MOSUNNY   73  39  29 W23G30    29.67F
ROSEAU         CLOUDY    66  46  48 SW15      29.68F
WARROAD        CLOUDY    64  48  55 SW13G18   29.67F
THIEF RVR FALL MOSUNNY   68  43  40 SW14      29.74F
CROOKSTON      MOSUNNY   73  45  35 W15       29.74F
FOSSTON        SUNNY     70  39  32 SW15      29.78R
DETROIT LAKES  MOSUNNY   68  37  32 W10       29.82S
MOORHEAD       SUNNY     70  36  28 SW8       29.80F
PARK RAPIDS    MOSUNNY   69  40  34 W10       29.79F
$$
MNZ006-009>011-018-025>026-242000-
   North Central Minnesota

CITY           SKY/WX    TMP DP  RH WIND       PRES   REMARKS
BAUDETTE       CLOUDY    67  42  40 SW10      29.67F
FLAG ISLAND    CLOUDY    57  43  58 SW10      29.64F
INTL FALLS     CLOUDY    68  40  35 W10G20    29.69F
WASKISH        MOSUNNY   64  43  45 SW7G16    29.72F
BIG FORK       MOSUNNY   72  43  35 SW10      29.74F
LONGVILLE      SUNNY     70  39  32 SW9       29.78S
GRAND RAPIDS   SUNNY     66  43  42 SW7G16    29.77F
CRANE LAKE     CLOUDY    64  39  39 SW9       29.73F
ORR            CLOUDY    66  37  34 SW8G16    29.71F
COOK           PTSUNNY   68  43  40 SW13      29.74F
WALKER         FAIR      69  39  33 SW12      29.77F
$$
MNZ012-019>021-037-242000-
   Northeast Minnesota

CITY           SKY/WX    TMP DP  RH WIND       PRES   REMARKS
DULUTH         MOSUNNY   68  51  54 SW13      29.77F
ELY            MOSUNNY   66  45  45 SW10G16   29.74F
HIBBING        MOSUNNY   69  44  40 SW6       29.75F
EVELETH        MOSUNNY   64  45  48 SW10G16   29.76F
DULUTH HARBOR  SUNNY     68  54  60 SW16      29.77F
TWO HARBORS    SUNNY     68  39  34 SW15      29.76F
SILVER BAY     SUNNY     66  50  55 S10       29.75F
GRAND MARAIS     N/A     50  47  89 SW6       29.78F
G MARAIS ARPRT SUNNY     55  45  67 S9        29.78F
$$
MNZ029>031-032-039>041-046>048-054>057-064-242000-
   West Central Minnesota

CITY           SKY/WX    TMP DP  RH WIND       PRES   REMARKS
FERGUS FALLS   SUNNY     70  36  28 W10       29.83S
WHEATON        SUNNY     72  43  35 W7        29.84F
MORRIS         SUNNY     73  45  35 W8        29.83S
ALEXANDRIA     MOSUNNY   68  42  38 W9        29.84F
ELBOW LAKE     FAIR      68  46  44 W8        29.83F
WADENA         MOSUNNY   68  46  45 SW6       29.80F
GLENWOOD       SUNNY     66  48  52 W7        29.84F
APPLETON       SUNNY     73  39  29 W5        29.83F
BENSON         SUNNY     72  45  37 NW6       29.83F
ORTONVILLE     SUNNY     75  39  27 W6        29.83F
MADISON        SUNNY     75  36  23 NW6       29.85S
WILLMAR        FAIR      68  50  52 W6        29.85F
$$
MNZ033>034-036-042>043-049>051-058-059-242000-
   Central Minnesota

CITY           SKY/WX    TMP DP  RH WIND       PRES   REMARKS
ST CLOUD       MOSUNNY   68  50  52 SW9       29.82F
SAUK CENTRE    FAIR      69  45  42 W7        29.84R
PAYNESVILLE    MOSUNNY   64  49  59 S5        29.83F
AITKIN         SUNNY     70  50  49 S8        29.78F
PINE RIVER     SUNNY     68  46  45 S8        29.82F
BRAINERD       SUNNY     64  46  52 SW10      29.81F
STAPLES        MOSUNNY   70  39  32 W9        29.80F
LONG PRAIRIE   FAIR      66  43  42 SW10      29.83S
LITTLE FALLS   MOSUNNY   63  46  55 SW5       29.83S
LITCHFIELD     MOSUNNY   66  54  63 W3        29.84F
BUFFALO        MOSUNNY   65  51  61 SW3       29.84F
MAPLE LAKE     MOSUNNY   66  54  64 S5        29.84F
$$
MNZ037-044-045-052-053-242000-
   East Central Minnesota

CITY           SKY/WX    TMP DP  RH WIND       PRES   REMARKS
PRINCETON      MOSUNNY   66  52  59 S6        29.82F
MORA           SUNNY     63  50  63 SW7       29.83F
CAMBRIDGE      SUNNY     66  52  59 S8        29.80F
RUSH CITY      SUNNY     64  52  64 S8        29.82F
MOOSE LAKE     SUNNY     64  50  59 S7        29.77F
HINCKLEY       FAIR      64  54  68 S10       29.81F
CLOQUET        SUNNY     66  50  55 SW10      29.78F
MCGREGOR       SUNNY     64  50  59 SW9       29.80F
$$
MNZ071>073-080-081-089-090-097-098-242000-
   Southwest Minnesota

CITY           SKY/WX    TMP DP  RH WIND       PRES   REMARKS
MONTEVIDEO     SUNNY     73  50  43 NW7       29.85F
GRANITE FALLS  MOSUNNY   69  50  51 CALM      29.86F
CANBY          MOSUNNY   73  39  29 W8        29.86F
MARSHALL       MOSUNNY   72  45  37 W9        29.85F
REDWOOD FALLS  MOSUNNY   68  52  56 VRB5      29.84F
OLIVIA         SUNNY     70  54  56 W6        29.84S
PIPESTONE      PTSUNNY   68  41  37 NW9       29.88F
WINDOM         MOSUNNY   72  52  49 W8        29.86F
WORTHINGTON    MOSUNNY   70  48  46 W9        29.88F
JACKSON        MOSUNNY   68  52  56 W7        29.87F
TRACY          MOSUNNY   74  46  36 W7        29.86F
SLAYTON        MOSUNNY   71  38  30 W12       29.88F
$$
MNZ065>067-074>077-082>085-091>093-242000-
   South Central Minnesota

CITY           SKY/WX    TMP DP  RH WIND       PRES   REMARKS
MANKATO        MOSUNNY   66  52  59 CALM      29.84F
NEW ULM        SUNNY     66  54  63 W6        29.84F
ST JAMES       MOSUNNY   70  54  56 SW6       29.85F
FAIRMONT       MOSUNNY   70  25  18 SW6       29.86S
GLENCOE        MOSUNNY   67  55  66 SW6       29.83S
FARIBAULT      CLOUDY    61  55  82 S3        29.86S FOG
OWATONNA       PTSUNNY   57  55  94 S7        29.86F FOG
WASECA         CLOUDY    59  50  72 SW10      29.87F
ALBERT LEA     PTSUNNY   59  57  94 S7        29.86F FOG
$$
MNZ078>079-086>088-094>096-242000-
   Southeast Minnesota

CITY           SKY/WX    TMP DP  RH WIND       PRES   REMARKS
ROCHESTER      CLOUDY    55  53  93 S10       29.88F FOG
RED WING       CLOUDY    59  55  88 SW9       29.85S FOG
STANTON        CLOUDY    60  55  84 SW7       29.84F HAZE
DODGE CENTER   CLOUDY    55  55 100 S12G18    29.86F FOG
WINONA         CLOUDY    61  54  77 SW6       29.87F
AUSTIN         CLOUDY    55  54  94 S12       29.87F FOG
PRESTON        CLOUDY    55  53  93 S15G22    29.90F FOG
$$
ABBREVIATIONS USED IN REMARKS
   TC - TEMPERATURES IN CELSIUS
  WCI - WIND CHILL INDEX
   HX - HEAT INDEX
  VSB - VISIBILITY
$$



USA.gov is the U.S. government's official web portal to all federal, state and local government web resources and services.